Estación de Calama Rural INIA

Ultimos registro cada 15 minutos 77
Estación Fecha / Hora Temperatura Humedad Lluvia Velocidad Dirección Radiación Presion
77 Calama Rural INIA 31-08-2026 19:00 13,9 10,5 0 0 0 8 782,1
76 Calama Rural INIA 31-08-2026 18:45 14,8 11,5 0 0 0 8,5 782,1
75 Calama Rural INIA 31-08-2026 18:30 16,2 10,8 0 0 0 11,8 782,1
74 Calama Rural INIA 31-08-2026 18:15 17,1 10,7 0 0,1 273 16,7 782,1
73 Calama Rural INIA 31-08-2026 18:00 18 10,5 0 0,5 244 20,4 782
72 Calama Rural INIA 31-08-2026 17:45 18,6 9,3 0 0,2 242 25 782
71 Calama Rural INIA 31-08-2026 17:30 19,6 9,6 0 0,6 242 40,1 781,9
70 Calama Rural INIA 31-08-2026 17:15 22,1 9,4 0 0,1 262 43,4 781,9
69 Calama Rural INIA 31-08-2026 17:00 21,9 7,3 0 1,1 247 130,4 781,8
68 Calama Rural INIA 31-08-2026 16:45 23 8,1 0 0,8 242 298,4 781,7
67 Calama Rural INIA 31-08-2026 16:30 23,8 9,2 0 0,4 259 342,9 781,7
66 Calama Rural INIA 31-08-2026 16:15 23,2 10,3 0 1 254 386,8 781,7
65 Calama Rural INIA 31-08-2026 16:00 23,5 9,7 0 1,3 251 430,3 781,8
64 Calama Rural INIA 31-08-2026 15:45 24 7,9 0 0,6 265 471,3 781,8
63 Calama Rural INIA 31-08-2026 15:30 23,4 8,5 0 1,1 263 508,8 781,9
62 Calama Rural INIA 31-08-2026 15:15 24,4 9 0 1,4 255 546,1 781,9
61 Calama Rural INIA 31-08-2026 15:00 24,3 8,2 0 0,6 254 580 782
60 Calama Rural INIA 31-08-2026 14:45 24,5 8,4 0 1,1 254 611,4 782,1
59 Calama Rural INIA 31-08-2026 14:30 23,4 9,7 0 1,2 253 637,9 782,2
58 Calama Rural INIA 31-08-2026 14:15 22,9 9,2 0 2,8 249 661,2 782,3
57 Calama Rural INIA 31-08-2026 14:00 23,5 11,3 0 1,2 256 682,8 782,5
56 Calama Rural INIA 31-08-2026 13:45 22,5 10 0 2,3 239 697,5 782,6
55 Calama Rural INIA 31-08-2026 13:30 22,8 11,3 0 2,2 245 712,3 782,7
54 Calama Rural INIA 31-08-2026 13:15 23,3 8,2 0 1,3 246 722,1 782,8
53 Calama Rural INIA 31-08-2026 13:00 23 9,6 0 1,9 248 728,5 782,9
52 Calama Rural INIA 31-08-2026 12:45 22,8 12 0 1,7 239 731,8 783,2
51 Calama Rural INIA 31-08-2026 12:30 22 9 0 2,2 248 730,1 0
50 Calama Rural INIA 31-08-2026 12:15 21,8 12,7 0 2,7 220 716,8 726,6
49 Calama Rural INIA 31-08-2026 12:00 22,2 8 0 1,5 244 718,7 783,4
48 Calama Rural INIA 31-08-2026 11:45 22 8,8 0 0,5 250 710,7 783,5
47 Calama Rural INIA 31-08-2026 11:30 21,3 10,3 0 0,8 244 691 783,5
46 Calama Rural INIA 31-08-2026 11:15 20 12 0 0,9 232 669,8 783,8
45 Calama Rural INIA 31-08-2026 11:00 20,8 10,8 0 0,3 230 650,4 783,8
44 Calama Rural INIA 31-08-2026 10:45 20 11,2 0 0,2 221 622,5 783,9
43 Calama Rural INIA 31-08-2026 10:30 18,8 14,3 0 0,3 92 594,3 784
42 Calama Rural INIA 31-08-2026 10:15 18,2 14,3 0 0 66 563,3 783,9
41 Calama Rural INIA 31-08-2026 10:00 18,8 14 0 0,2 73 529,2 783,9
40 Calama Rural INIA 31-08-2026 09:45 17,7 16,2 0 0,1 59 491,1 784
39 Calama Rural INIA 31-08-2026 09:30 16,1 16,6 0 0,1 57 452 783,9
38 Calama Rural INIA 31-08-2026 09:15 15,3 19,2 0 0,2 55 411,5 784
37 Calama Rural INIA 31-08-2026 09:00 14,8 18,1 0 0 0 368,2 783,8
36 Calama Rural INIA 31-08-2026 08:45 13,8 18,9 0 0 40 323 783,7
35 Calama Rural INIA 31-08-2026 08:30 12,2 19,3 0 0 77 276,8 783,7
34 Calama Rural INIA 31-08-2026 08:15 11,4 21,5 0 0 64 230,4 783,4
33 Calama Rural INIA 31-08-2026 08:00 10,7 20,8 0 0 38 185,1 783,5
32 Calama Rural INIA 31-08-2026 07:45 9,2 23,1 0 0 0 142,9 783,4
31 Calama Rural INIA 31-08-2026 07:30 6 27,3 0 0 0 96,7 783
30 Calama Rural INIA 31-08-2026 07:15 2,6 33,1 0 0 0 41,5 782,9
29 Calama Rural INIA 31-08-2026 07:00 1,4 41,8 0 0 0 14,3 782,5
28 Calama Rural INIA 31-08-2026 06:45 1,9 39,7 0 0 0 11,1 782,4
27 Calama Rural INIA 31-08-2026 06:30 2,5 38,6 0 0 0 8,1 782,4
26 Calama Rural INIA 31-08-2026 06:15 2 35,9 0 0 0 8,2 782,2
25 Calama Rural INIA 31-08-2026 06:00 2,5 40,2 0 0 0 8 782,2
24 Calama Rural INIA 31-08-2026 05:45 2,7 35,6 0 0 0 7,9 782,1
23 Calama Rural INIA 31-08-2026 05:30 2,5 33,2 0 0 0 8 782
22 Calama Rural INIA 31-08-2026 05:15 2,7 34 0 0 0 7,8 781,9
21 Calama Rural INIA 31-08-2026 05:00 3,4 31,2 0 0 0 9,5 782
20 Calama Rural INIA 31-08-2026 04:45 3,5 29,8 0 0 0 8 781,9
19 Calama Rural INIA 31-08-2026 04:30 3,8 28,5 0 0 0 7,9 781,9
18 Calama Rural INIA 31-08-2026 04:15 3,9 27,8 0 0 0 7,9 781,8
17 Calama Rural INIA 31-08-2026 04:00 4,2 28 0 0 0 8 782
16 Calama Rural INIA 31-08-2026 03:45 5,1 25 0 0 0 7,9 782
15 Calama Rural INIA 31-08-2026 03:30 5,8 23,8 0 0,4 80 8,2 782
14 Calama Rural INIA 31-08-2026 03:15 5,8 23,6 0 0,8 79 8,2 782,2
13 Calama Rural INIA 31-08-2026 03:00 5,8 22,6 0 1,6 69 8,5 782,2
12 Calama Rural INIA 31-08-2026 02:45 6,8 22,3 0 1 85 8,9 782,1
11 Calama Rural INIA 31-08-2026 02:30 7,2 20,1 0 2,2 78 9,2 781,9
10 Calama Rural INIA 31-08-2026 02:15 7,4 20,8 0 1,3 85 9,2 782,1
9 Calama Rural INIA 31-08-2026 02:00 7,5 22,2 0 0,2 98 9,4 782,4
8 Calama Rural INIA 31-08-2026 01:45 5,9 21,7 0 0,1 105 9,1 782,4
7 Calama Rural INIA 31-08-2026 01:30 6,3 23,5 0 0 0 9,3 782,3
6 Calama Rural INIA 31-08-2026 01:15 8,6 20 0 0 0 9,3 782,3
5 Calama Rural INIA 31-08-2026 01:00 11 25,3 0 0 11 9,2 782,3
4 Calama Rural INIA 31-08-2026 00:45 11,4 21,5 0 0 307 10,3 782,6
3 Calama Rural INIA 31-08-2026 00:30 11,3 17,8 0 0 0 9,2 782,6
2 Calama Rural INIA 31-08-2026 00:15 11,2 17 0 0 0 8,9 782,6
1 Calama Rural INIA 31-08-2026 00:00 11,1 14,9 0 0 332 8,9 782,7